Time,TemperatureF,DewpointF,PressureIn,WindDirection,WindDirectionDegrees,WindSpeedMPH,WindSpeedGustMPH,Humidity,HourlyPrecipIn,Conditions,Clouds,dailyrainin,SoftwareType,DateUTC
2013-03-04 00:00:00,26.3,21.8,30.12,NNW,334,0.0,0.0,83,0.00,,,0.00,Wunderground v.1.15,2013-03-04 05:00:00,
2013-03-04 00:10:00,26.4,22.2,30.13,NNW,334,0.0,0.0,84,0.00,,,0.00,Wunderground v.1.15,2013-03-04 05:10:00,
2013-03-04 00:19:00,26.1,22.2,30.13,NNW,334,0.0,0.0,85,0.00,,,0.00,Wunderground v.1.15,2013-03-04 05:19:00,
2013-03-04 00:30:00,26.1,21.9,30.13,NNW,334,0.0,0.0,84,0.00,,,0.00,Wunderground v.1.15,2013-03-04 05:30:00,
2013-03-04 00:40:00,26.4,22.8,30.13,NNW,334,0.0,0.0,86,0.00,,,0.00,Wunderground v.1.15,2013-03-04 05:40:00,
2013-03-04 00:50:00,26.3,22.4,30.13,NNW,334,0.0,0.0,85,0.00,,,0.00,Wunderground v.1.15,2013-03-04 05:50:00,
2013-03-04 01:00:00,26.2,21.7,30.13,NNW,334,0.0,0.0,83,0.00,,,0.00,Wunderground v.1.15,2013-03-04 06:00:00,
2013-03-04 01:10:00,25.7,21.5,30.14,NNW,334,0.0,0.0,84,0.00,,,0.00,Wunderground v.1.15,2013-03-04 06:10:00,
2013-03-04 01:20:00,25.6,22.0,30.14,NNW,335,0.0,0.0,86,0.00,,,0.00,Wunderground v.1.15,2013-03-04 06:20:00,
2013-03-04 01:30:00,25.7,22.1,30.14,NNW,334,0.0,0.0,86,0.00,,,0.00,Wunderground v.1.15,2013-03-04 06:30:00,
2013-03-04 01:40:00,25.5,21.6,30.14,NNW,334,0.0,0.0,85,0.00,,,0.00,Wunderground v.1.15,2013-03-04 06:40:00,
2013-03-04 01:49:00,25.6,21.7,30.14,NNW,334,0.0,0.0,85,0.00,,,0.00,Wunderground v.1.15,2013-03-04 06:49:00,
2013-03-04 02:00:00,25.4,21.8,30.14,NNW,334,0.0,0.0,86,0.00,,,0.00,Wunderground v.1.15,2013-03-04 07:00:00,
2013-03-04 02:10:00,25.3,22.0,30.14,NNW,334,0.0,0.0,87,0.00,,,0.00,Wunderground v.1.15,2013-03-04 07:10:00,
2013-03-04 02:20:00,25.4,22.3,30.14,NNW,334,0.0,0.0,88,0.00,,,0.00,Wunderground v.1.15,2013-03-04 07:20:00,
2013-03-04 02:30:00,25.1,21.8,30.14,NNW,334,0.0,0.0,87,0.00,,,0.00,Wunderground v.1.15,2013-03-04 07:30:00,
2013-03-04 02:40:00,25.1,21.8,30.14,NNW,334,0.0,0.0,87,0.00,,,0.00,Wunderground v.1.15,2013-03-04 07:40:00,
2013-03-04 02:50:00,25.0,21.9,30.14,NNW,334,0.0,0.0,88,0.00,,,0.00,Wunderground v.1.15,2013-03-04 07:50:00,
2013-03-04 03:00:00,24.5,21.2,30.14,NNW,334,0.0,0.0,87,0.00,,,0.00,Wunderground v.1.15,2013-03-04 08:00:00,
2013-03-04 03:10:00,23.9,20.9,30.14,NNW,334,0.0,0.0,88,0.00,,,0.00,Wunderground v.1.15,2013-03-04 08:10:00,
2013-03-04 03:20:00,24.2,22.0,30.14,NNW,334,0.0,0.0,91,0.00,,,0.00,Wunderground v.1.15,2013-03-04 08:20:00,
2013-03-04 03:30:00,23.7,20.7,30.14,NNW,334,0.0,0.0,88,0.00,,,0.00,Wunderground v.1.15,2013-03-04 08:30:00,
2013-03-04 03:40:00,24.0,21.8,30.14,NNW,334,0.0,0.0,91,0.00,,,0.00,Wunderground v.1.15,2013-03-04 08:40:00,
2013-03-04 03:49:00,23.8,21.0,30.14,NNW,334,0.0,0.0,89,0.00,,,0.00,Wunderground v.1.15,2013-03-04 08:49:00,
2013-03-04 04:00:00,23.6,21.1,30.14,NNW,334,0.0,0.0,90,0.00,,,0.00,Wunderground v.1.15,2013-03-04 09:00:00,
2013-03-04 04:10:00,23.5,21.0,30.14,NNW,334,0.0,0.0,90,0.00,,,0.00,Wunderground v.1.15,2013-03-04 09:10:00,
2013-03-04 04:20:00,23.7,21.2,30.14,NNW,334,0.0,0.0,90,0.00,,,0.00,Wunderground v.1.15,2013-03-04 09:20:00,
2013-03-04 04:29:00,23.5,21.0,30.14,NNW,334,0.0,0.0,90,0.00,,,0.00,Wunderground v.1.15,2013-03-04 09:29:00,
2013-03-04 04:40:00,22.5,19.7,30.14,North,5,1.0,2.0,89,0.00,,,0.00,Wunderground v.1.15,2013-03-04 09:40:00,
2013-03-04 04:50:00,22.2,19.7,30.14,North,5,0.0,0.0,90,0.00,,,0.00,Wunderground v.1.15,2013-03-04 09:50:00,
2013-03-04 05:00:00,22.8,20.8,30.14,North,5,0.0,0.0,92,0.00,,,0.00,Wunderground v.1.15,2013-03-04 10:00:00,
2013-03-04 05:09:00,23.0,20.5,30.14,North,5,0.0,0.0,90,0.00,,,0.00,Wunderground v.1.15,2013-03-04 10:09:00,
2013-03-04 05:20:00,23.3,21.1,30.15,North,5,0.0,0.0,91,0.00,,,0.00,Wunderground v.1.15,2013-03-04 10:20:00,
2013-03-04 05:30:00,23.5,21.0,30.15,North,5,0.0,0.0,90,0.00,,,0.00,Wunderground v.1.15,2013-03-04 10:30:00,
2013-03-04 05:40:00,23.3,20.5,30.15,North,5,0.0,0.0,89,0.00,,,0.00,Wunderground v.1.15,2013-03-04 10:40:00,
2013-03-04 05:50:00,23.2,20.7,30.15,North,5,0.0,0.0,90,0.00,,,0.00,Wunderground v.1.15,2013-03-04 10:50:00,
2013-03-04 06:00:00,23.2,20.7,30.15,North,5,0.0,0.0,90,0.00,,,0.00,Wunderground v.1.15,2013-03-04 11:00:00,
2013-03-04 06:10:00,23.2,20.4,30.15,North,5,0.0,0.0,89,0.00,,,0.00,Wunderground v.1.15,2013-03-04 11:10:00,
2013-03-04 06:19:00,23.1,20.6,30.15,North,5,0.0,1.0,90,0.00,,,0.00,Wunderground v.1.15,2013-03-04 11:19:00,
2013-03-04 06:30:00,23.3,20.8,30.15,North,5,0.0,0.0,90,0.00,,,0.00,Wunderground v.1.15,2013-03-04 11:30:00,
2013-03-04 06:40:00,23.4,20.9,30.15,North,5,0.0,0.0,90,0.00,,,0.00,Wunderground v.1.15,2013-03-04 11:40:00,
2013-03-04 06:50:00,23.0,20.2,30.15,North,5,0.0,0.0,89,0.00,,,0.00,Wunderground v.1.15,2013-03-04 11:50:00,
2013-03-04 07:00:00,23.2,20.7,30.15,North,5,0.0,0.0,90,0.00,,,0.00,Wunderground v.1.15,2013-03-04 12:00:00,
2013-03-04 07:10:00,23.3,20.8,30.14,North,5,0.0,0.0,90,0.00,,,0.00,Wunderground v.1.15,2013-03-04 12:10:00,
2013-03-04 07:20:00,23.4,20.9,30.15,North,5,0.0,0.0,90,0.00,,,0.00,Wunderground v.1.15,2013-03-04 12:20:00,
2013-03-04 07:30:00,23.5,21.0,30.14,North,5,0.0,0.0,90,0.00,,,0.00,Wunderground v.1.15,2013-03-04 12:30:00,
2013-03-04 07:40:00,23.8,21.0,30.15,North,5,0.0,0.0,89,0.00,,,0.00,Wunderground v.1.15,2013-03-04 12:40:00,
2013-03-04 07:50:00,24.0,21.2,30.15,North,5,0.0,0.0,89,0.00,,,0.00,Wunderground v.1.15,2013-03-04 12:50:00,
2013-03-04 08:00:00,24.7,21.9,30.15,North,5,0.0,0.0,89,0.00,,,0.00,Wunderground v.1.15,2013-03-04 13:00:00,
2013-03-04 08:09:00,25.3,22.2,30.14,North,5,0.0,0.0,88,0.00,,,0.00,Wunderground v.1.15,2013-03-04 13:09:00,
2013-03-04 08:20:00,25.8,22.7,30.14,North,5,0.0,0.0,88,0.00,,,0.00,Wunderground v.1.15,2013-03-04 13:20:00,
2013-03-04 08:30:00,26.0,22.9,30.14,North,5,1.0,2.0,88,0.00,,,0.00,Wunderground v.1.15,2013-03-04 13:30:00,
2013-03-04 08:40:00,26.3,23.0,30.14,North,5,1.0,2.0,87,0.00,,,0.00,Wunderground v.1.15,2013-03-04 13:40:00,
2013-03-04 08:50:00,27.3,23.4,30.14,North,360,1.0,1.0,85,0.00,,,0.00,Wunderground v.1.15,2013-03-04 13:50:00,
2013-03-04 09:00:00,28.1,23.3,30.14,North,5,1.0,1.0,82,0.00,,,0.00,Wunderground v.1.15,2013-03-04 14:00:00,
2013-03-04 09:10:00,29.7,24.3,30.14,West,275,0.0,0.0,80,0.00,,,0.00,Wunderground v.1.15,2013-03-04 14:10:00,
2013-03-04 09:20:00,31.0,24.6,30.14,South,180,1.0,2.0,77,0.00,,,0.00,Wunderground v.1.15,2013-03-04 14:20:00,
2013-03-04 09:30:00,31.5,23.8,30.14,South,182,2.0,2.0,73,0.00,,,0.00,Wunderground v.1.15,2013-03-04 14:30:00,
2013-03-04 09:40:00,31.8,23.8,30.14,SSW,211,3.0,3.0,72,0.00,,,0.00,Wunderground v.1.15,2013-03-04 14:40:00,
2013-03-04 09:50:00,32.2,23.8,30.14,South,171,2.0,2.0,71,0.00,,,0.00,Wunderground v.1.15,2013-03-04 14:50:00,
2013-03-04 10:00:00,32.5,24.1,30.13,SE,138,2.0,3.0,71,0.00,,,0.00,Wunderground v.1.15,2013-03-04 15:00:00,
2013-03-04 10:10:00,33.0,23.6,30.13,SW,219,3.0,3.0,68,0.00,,,0.00,Wunderground v.1.15,2013-03-04 15:10:00,
2013-03-04 10:20:00,34.5,24.7,30.13,ESE,111,2.0,3.0,67,0.00,,,0.00,Wunderground v.1.15,2013-03-04 15:20:00,
2013-03-04 10:30:00,34.4,24.2,30.12,SE,134,3.0,3.0,66,0.00,,,0.00,Wunderground v.1.15,2013-03-04 15:30:00,
2013-03-04 10:40:00,34.8,24.6,30.12,ESE,121,2.0,2.0,66,0.00,,,0.00,Wunderground v.1.15,2013-03-04 15:40:00,
2013-03-04 10:50:00,35.4,24.4,30.12,SSE,163,3.0,3.0,64,0.00,,,0.00,Wunderground v.1.15,2013-03-04 15:50:00,
2013-03-04 11:00:00,35.6,24.6,30.12,SSE,155,2.0,4.0,64,0.00,,,0.00,Wunderground v.1.15,2013-03-04 16:00:00,
2013-03-04 11:10:00,36.3,24.9,30.12,SE,134,2.0,2.0,63,0.00,,,0.00,Wunderground v.1.15,2013-03-04 16:10:00,
2013-03-04 11:20:00,36.5,23.9,30.11,SE,126,3.0,3.0,60,0.00,,,0.00,Wunderground v.1.15,2013-03-04 16:20:00,
2013-03-04 11:30:00,36.6,23.6,30.11,SE,146,2.0,2.0,59,0.00,,,0.00,Wunderground v.1.15,2013-03-04 16:30:00,
2013-03-04 11:40:00,36.8,22.1,30.11,South,185,4.0,6.0,55,0.00,,,0.00,Wunderground v.1.15,2013-03-04 16:40:00,
2013-03-04 11:50:00,36.9,21.8,30.11,ESE,123,4.0,4.0,54,0.00,,,0.00,Wunderground v.1.15,2013-03-04 16:50:00,
2013-03-04 12:00:00,37.4,22.3,30.10,SSE,153,3.0,3.0,54,0.00,,,0.00,Wunderground v.1.15,2013-03-04 17:00:00,
2013-03-04 12:10:00,37.4,21.8,30.10,South,190,5.0,5.0,53,0.00,,,0.00,Wunderground v.1.15,2013-03-04 17:10:00,
2013-03-04 12:19:00,37.5,22.8,30.10,SW,235,4.0,4.0,55,0.00,,,0.00,Wunderground v.1.15,2013-03-04 17:19:00,
2013-03-04 12:29:00,37.7,23.0,30.09,SSW,199,4.0,4.0,55,0.00,,,0.00,Wunderground v.1.15,2013-03-04 17:29:00,
2013-03-04 12:40:00,37.4,23.1,30.08,SSE,165,5.0,8.0,56,0.00,,,0.00,Wunderground v.1.15,2013-03-04 17:40:00,
2013-03-04 12:50:00,37.5,23.2,30.08,SSE,167,4.0,5.0,56,0.00,,,0.00,Wunderground v.1.15,2013-03-04 17:50:00,
2013-03-04 13:00:00,37.3,23.4,30.07,SSE,153,5.0,5.0,57,0.00,,,0.00,Wunderground v.1.15,2013-03-04 18:00:00,
2013-03-04 13:10:00,37.6,24.1,30.06,SSW,198,3.0,3.0,58,0.00,,,0.00,Wunderground v.1.15,2013-03-04 18:10:00,
2013-03-04 13:20:00,37.9,23.2,30.06,SSE,165,3.0,3.0,55,0.00,,,0.00,Wunderground v.1.15,2013-03-04 18:20:00,
2013-03-04 13:30:00,38.1,24.2,30.06,South,191,4.0,5.0,57,0.00,,,0.00,Wunderground v.1.15,2013-03-04 18:30:00,
2013-03-04 13:40:00,38.2,23.0,30.05,South,169,4.0,4.0,54,0.00,,,0.00,Wunderground v.1.15,2013-03-04 18:40:00,
2013-03-04 13:50:00,38.3,23.5,30.04,South,171,4.0,4.0,55,0.00,,,0.00,Wunderground v.1.15,2013-03-04 18:50:00,
2013-03-04 14:00:00,38.4,23.6,30.04,SSE,156,2.0,3.0,55,0.00,,,0.00,Wunderground v.1.15,2013-03-04 19:00:00,
2013-03-04 14:10:00,38.5,23.7,30.03,ESE,104,3.0,3.0,55,0.00,,,0.00,Wunderground v.1.15,2013-03-04 19:10:00,
2013-03-04 14:20:00,38.8,23.1,30.03,SE,134,3.0,5.0,53,0.00,,,0.00,Wunderground v.1.15,2013-03-04 19:20:00,
2013-03-04 14:30:00,39.4,23.2,30.02,South,182,3.0,5.0,52,0.00,,,0.00,Wunderground v.1.15,2013-03-04 19:30:00,
2013-03-04 14:40:00,39.7,23.0,30.01,SSE,150,3.0,4.0,51,0.00,,,0.00,Wunderground v.1.15,2013-03-04 19:40:00,
2013-03-04 14:50:00,40.0,22.8,30.00,ESE,123,4.0,4.0,50,0.00,,,0.00,Wunderground v.1.15,2013-03-04 19:50:00,
2013-03-04 15:00:00,40.2,23.0,30.00,SSE,153,3.0,3.0,50,0.00,,,0.00,Wunderground v.1.15,2013-03-04 20:00:00,
2013-03-04 15:10:00,40.3,23.1,30.00,SE,132,4.0,4.0,50,0.00,,,0.00,Wunderground v.1.15,2013-03-04 20:10:00,
2013-03-04 15:20:00,40.5,23.3,29.99,East,82,3.0,3.0,50,0.00,,,0.00,Wunderground v.1.15,2013-03-04 20:20:00,
2013-03-04 15:30:00,40.8,22.1,29.99,SSE,163,4.0,4.0,47,0.00,,,0.00,Wunderground v.1.15,2013-03-04 20:30:00,
2013-03-04 15:39:00,41.1,21.9,29.99,ENE,72,4.0,4.0,46,0.00,,,0.00,Wunderground v.1.15,2013-03-04 20:39:00,
2013-03-04 15:50:00,41.3,22.1,29.99,SSE,160,4.0,4.0,46,0.00,,,0.00,Wunderground v.1.15,2013-03-04 20:50:00,
2013-03-04 16:00:00,41.6,22.3,29.98,SE,128,3.0,3.0,46,0.00,,,0.00,Wunderground v.1.15,2013-03-04 21:00:00,
2013-03-04 16:10:00,41.7,22.4,29.98,SE,131,4.0,4.0,46,0.00,,,0.00,Wunderground v.1.15,2013-03-04 21:10:00,
2013-03-04 16:20:00,42.0,22.7,29.98,ESE,118,3.0,3.0,46,0.00,,,0.00,Wunderground v.1.15,2013-03-04 21:20:00,
2013-03-04 16:30:00,42.2,22.9,29.97,ESE,103,2.0,3.0,46,0.00,,,0.00,Wunderground v.1.15,2013-03-04 21:30:00,
2013-03-04 16:40:00,42.1,22.8,29.97,SSE,149,3.0,3.0,46,0.00,,,0.00,Wunderground v.1.15,2013-03-04 21:40:00,
2013-03-04 16:50:00,42.2,22.9,29.97,East,84,3.0,3.0,46,0.00,,,0.00,Wunderground v.1.15,2013-03-04 21:50:00,
2013-03-04 17:00:00,42.2,22.9,29.97,East,98,2.0,3.0,46,0.00,,,0.00,Wunderground v.1.15,2013-03-04 22:00:00,
2013-03-04 17:10:00,42.0,22.7,29.96,ESE,115,3.0,3.0,46,0.00,,,0.00,Wunderground v.1.15,2013-03-04 22:10:00,
2013-03-04 17:20:00,41.9,22.6,29.96,ENE,62,4.0,7.0,46,0.00,,,0.00,Wunderground v.1.15,2013-03-04 22:20:00,
2013-03-04 17:30:00,41.9,22.6,29.96,East,91,3.0,7.0,46,0.00,,,0.00,Wunderground v.1.15,2013-03-04 22:30:00,
2013-03-04 17:40:00,41.8,22.5,29.95,ESE,119,5.0,5.0,46,0.00,,,0.00,Wunderground v.1.15,2013-03-04 22:40:00,
2013-03-04 17:50:00,41.8,22.5,29.96,East,91,2.0,3.0,46,0.00,,,0.00,Wunderground v.1.15,2013-03-04 22:50:00,
2013-03-04 18:00:00,41.8,22.0,29.95,East,100,3.0,6.0,45,0.00,,,0.00,Wunderground v.1.15,2013-03-04 23:00:00,
2013-03-04 18:10:00,41.6,22.3,29.95,ENE,68,3.0,3.0,46,0.00,,,0.00,Wunderground v.1.15,2013-03-04 23:10:00,
2013-03-04 18:20:00,41.6,22.8,29.94,ENE,71,3.0,3.0,47,0.00,,,0.00,Wunderground v.1.15,2013-03-04 23:20:00,
2013-03-04 18:30:00,41.6,22.8,29.94,ENE,71,2.0,3.0,47,0.00,,,0.00,Wunderground v.1.15,2013-03-04 23:30:00,
2013-03-04 18:40:00,41.6,22.8,29.94,East,89,3.0,3.0,47,0.00,,,0.00,Wunderground v.1.15,2013-03-04 23:40:00,
2013-03-04 18:50:00,41.6,23.8,29.95,ENE,76,2.0,2.0,49,0.00,,,0.00,Wunderground v.1.15,2013-03-04 23:50:00,
2013-03-04 19:00:00,41.6,23.8,29.96,East,86,2.0,2.0,49,0.00,,,0.00,Wunderground v.1.15,2013-03-05 00:00:00,
2013-03-04 19:10:00,41.6,23.8,29.96,ESE,105,2.0,2.0,49,0.00,,,0.00,Wunderground v.1.15,2013-03-05 00:10:00,
2013-03-04 19:20:00,41.8,24.0,29.97,South,175,2.0,4.0,49,0.00,,,0.00,Wunderground v.1.15,2013-03-05 00:20:00,
2013-03-04 19:30:00,41.8,24.5,29.98,ESE,106,2.0,2.0,50,0.00,,,0.00,Wunderground v.1.15,2013-03-05 00:30:00,
2013-03-04 19:40:00,41.9,24.1,29.98,South,170,2.0,2.0,49,0.00,,,0.00,Wunderground v.1.15,2013-03-05 00:40:00,
2013-03-04 19:50:00,42.0,24.2,29.98,ESE,115,1.0,2.0,49,0.00,,,0.00,Wunderground v.1.15,2013-03-05 00:50:00,
2013-03-04 20:00:00,42.1,24.8,29.98,ESE,103,1.0,1.0,50,0.00,,,0.00,Wunderground v.1.15,2013-03-05 01:00:00,
2013-03-04 20:10:00,42.1,24.8,29.99,East,79,1.0,1.0,50,0.00,,,0.00,Wunderground v.1.15,2013-03-05 01:10:00,
2013-03-04 20:20:00,42.2,24.9,29.98,East,81,1.0,2.0,50,0.00,,,0.00,Wunderground v.1.15,2013-03-05 01:20:00,
2013-03-04 20:30:00,42.1,24.8,29.98,East,90,1.0,2.0,50,0.00,,,0.00,Wunderground v.1.15,2013-03-05 01:30:00,
2013-03-04 20:39:00,42.1,25.7,29.98,ESE,103,1.0,1.0,52,0.00,,,0.00,Wunderground v.1.15,2013-03-05 01:39:00,
2013-03-04 20:50:00,42.0,25.6,29.97,ENE,57,1.0,2.0,52,0.00,,,0.00,Wunderground v.1.15,2013-03-05 01:50:00,
2013-03-04 21:00:00,41.8,26.4,29.97,ENE,60,2.0,2.0,54,0.00,,,0.00,Wunderground v.1.15,2013-03-05 02:00:00,
2013-03-04 21:09:00,41.5,26.5,29.98,NE,47,2.0,3.0,55,0.00,,,0.00,Wunderground v.1.15,2013-03-05 02:09:00,
2013-03-04 21:19:00,41.4,26.4,29.97,ENE,67,2.0,2.0,55,0.00,,,0.00,Wunderground v.1.15,2013-03-05 02:19:00,
2013-03-04 21:30:00,41.4,26.4,29.97,East,86,2.0,2.0,55,0.00,,,0.00,Wunderground v.1.15,2013-03-05 02:30:00,
2013-03-04 21:40:00,41.4,26.9,29.97,NE,42,2.0,2.0,56,0.00,,,0.00,Wunderground v.1.15,2013-03-05 02:40:00,
2013-03-04 21:50:00,41.5,27.0,29.97,ENE,71,1.0,2.0,56,0.00,,,0.00,Wunderground v.1.15,2013-03-05 02:50:00,
2013-03-04 22:00:00,41.5,26.5,29.97,NE,46,2.0,2.0,55,0.00,,,0.00,Wunderground v.1.15,2013-03-05 03:00:00,
2013-03-04 22:10:00,41.5,26.5,29.97,East,92,3.0,3.0,55,0.00,,,0.00,Wunderground v.1.15,2013-03-05 03:10:00,
2013-03-04 22:20:00,41.6,26.6,29.96,East,100,2.0,2.0,55,0.00,,,0.00,Wunderground v.1.15,2013-03-05 03:20:00,
2013-03-04 22:30:00,41.8,27.2,29.96,ENE,64,2.0,3.0,56,0.00,,,0.00,Wunderground v.1.15,2013-03-05 03:30:00,
2013-03-04 22:40:00,41.9,26.9,29.96,ENE,67,3.0,3.0,55,0.00,,,0.00,Wunderground v.1.15,2013-03-05 03:40:00,
2013-03-04 22:50:00,42.0,27.0,29.96,East,83,3.0,6.0,55,0.00,,,0.00,Wunderground v.1.15,2013-03-05 03:50:00,
2013-03-04 23:00:00,42.1,27.5,29.95,ENE,71,2.0,2.0,56,0.00,,,0.00,Wunderground v.1.15,2013-03-05 04:00:00,
2013-03-04 23:10:00,42.2,27.2,29.95,ESE,121,2.0,2.0,55,0.00,,,0.00,Wunderground v.1.15,2013-03-05 04:10:00,
2013-03-04 23:20:00,42.3,27.3,29.95,ESE,107,2.0,2.0,55,0.00,,,0.00,Wunderground v.1.15,2013-03-05 04:20:00,
2013-03-04 23:29:00,42.3,27.7,29.94,East,92,2.0,3.0,56,0.00,,,0.00,Wunderground v.1.15,2013-03-05 04:29:00,
2013-03-04 23:39:00,42.3,27.3,29.94,ENE,72,2.0,3.0,55,0.00,,,0.00,Wunderground v.1.15,2013-03-05 04:39:00,
2013-03-04 23:50:00,42.3,26.8,29.94,East,86,2.0,2.0,54,0.00,,,0.00,Wunderground v.1.15,2013-03-05 04:50:00,